Wind_Speed
18 18 16 16 15 15 15 14 12 11 11 11 11 11 10 10 11 11 9 7 7 6 6 7 7 8 9 8 7 8 7 5 10 3 3 2 2 3 4 3 2 1 9
18 18 17 16 15 16 16 15 13 13 12 12 10 12 12 11 9 12 12 11 8 8 8 7 8 8 5 5 8 5 9 7 9 8 5 5 2 3 2 3 6 6 6
18 18 18 17 16 16 17 15 14 13 12 13 12 11 12 12 11 10 11 12 11 10 8 8 7 8 7 7 7 9 8 5 6 8 7 4 5 4 4 0 2 2 6
17 18 18 18 17 16 15 15 13 13 13 12 10 9 9 9 10 10 8 8 10 10 11 11 9 8 11 8 11 9 10 8 6 7 8 3 5 4 4 6 2 2 1
12 17 18 18 14 13 12 13 12 11 11 9 9 9 8 8 7 7 8 8 9 11 10 10 10 9 11 12 9 9 9 10 10 7 8 7 7 2 3 3 4 3 2
16 17 15 14 15 13 9 10 11 12 9 9 8 7 5 6 9 10 9 8 9 11 11 10 10 10 9 11 11 12 11 11 11 9 12 10 5 6 3 6 6 4 6
11 10 11 11 10 13 12 10 10 11 11 10 9 7 5 6 6 6 8 7 9 8 9 8 9 7 7 6 7 8 10 11 11 8 8 8 6 6 6 7 5 5 4
7 5 6 9 10 11 9 6 6 4 7 6 5 3 4 5 4 3 3 3 5 10 13 11 6 7 6 2 1 2 1 3 2 1 1 3 5 6 6 6 2 7 7
4 5 6 6 6 5 5 3 3 3 2 2 4 5 4 2 3 3 3 4 2 1 6 11 10 11 8 6 4 3 2 1 2 1 2 2 3 1 3 4 3 5 3
5 6 6 5 5 6 7 6 5 4 2 1 0 1 3 6 10 9 8 6 4 1 5 8 11 8 9 8 6 6 7 6 5 6 6 9 11 11 4 8 7 3 5
7 8 7 5 3 3 3 3 3 3 5 4 4 4 3 6 7 5 6 7 5 5 3 2 3 9 10 9 8 10 10 12 9 6 6 7 9 11 13 13 13 11 6
11 12 10 9 7 6 6 6 4 4 6 5 8 5 8 8 9 6 2 8 8 9 7 6 8 6 8 11 11 9 11 10 10 10 10 9 9 9 10 11 12 11 11
11 12 12 11 10 10 9 10 7 8 7 6 5 6 6 5 7 12 13 5 5 11 12 14 10 8 8 11 16 17 14 10 11 13 14 11 8 8 8 7 7 9 11
12 11 10 10 9 10 11 9 7 6 5 5 6 5 5 5 6 7 10 12 13 19 17 13 11 12 14 15 14 14 14 14 16 16 14 10 9 7 7 6 4 4 2
12 12 12 10 9 10 11 10 9 10 6 6 6 5 5 6 5 8 8 9 11 14 16 16 16 19 23 23 24 23 19 18 17 15 13 11 8 6 6 5 5 4 4
11 10 10 10 11 12 12 12 10 10 9 9 10 7 6 6 7 8 10 12 16 17 14 15 14 11 12 11 8 10 10 8 9 8 6 6 5 4 3 5 5 6 5
10 10 9 8 7 7 6 6 8 8 8 8 8 8 8 7 9 10 9 10 11 13 10 10 10 9 9 7 6 5 5 5 4 6 6 5 5 3 3 2 2 4 4
11 11 8 8 6 6 6 6 6 4 5 5 6 7 8 9 11 11 10 8 6 5 7 7 6 9 8 6 7 8 7 6 5 5 5 6 5 3 2 3 4 5 5
6 7 7 7 7 7 6 5 6 6 6 6 6 6 8 9 8 8 6 3 5 4 4 5 6 7 6 6 6 7 6 5 4 3 2 2 2 1 1 1 2 3 2
5 5 4 5 6 6 6 6 6 5 5 4 5 7 6 5 4 4 4 5 5 4 4 4 4 4 5 4 4 4 3 4 3 1 1 2 2 2 3 4 6 7 7
5 5 4 4 4 3 4 4 3 3 3 4 5 6 7 4 3 3 2 2 2 2 3 3 4 4 5 6 6 5 4 2 2 2 1 1 1 1 2 4 4 4 5
5 6 7 8 7 6 7 6 6 6 5 5 5 6 9 7 5 6 4 4 4 4 5 6 6 6 6 6 5 5 4 3 3 3 2 2 2 2 2 2 3 4 6
9 8 7 8 9 7 8 9 9 9 8 8 9 8 8 8 6 6 5 5 5 5 6 6 6 6 6 6 6 5 4 4 4 4 4 3 2 2 2 3 5 5 5
11 11 11 11 11 12 12 12 10 9 8 9 10 11 9 10 10 8 8 8 8 8 8 9 8 8 8 7 6 6 6 6 6 5 5 3 2 1 1 2 4 5 6
13 12 13 13 13 14 14 13 12 10 11 11 10 10 10 10 10 10 11 12 13 12 12 11 11 11 11 10 7 7 8 7 6 6 3 3 2 2 3 4 4 6 6
10 11 13 13 13 13 11 11 12 13 14 11 8 8 9 9 8 10 10 13 14 15 15 15 15 15 14 14 13 12 13 10 9 8 6 5 6 7 7 8 8 9 9
Wind_Direction
212 214 218 221 224 226 227 233 240 249 244 235 240 240 239 236 239 232 244 263 251 261 277 272 275 287 293 299 287 287 295 277 283 13 299 22 350 6 32 18 31 80 48
208 212 218 222 225 226 231 236 240 246 249 253 245 242 244 244 246 243 242 261 253 259 262 277 279 284 301 279 282 286 314 308 290 301 258 265 292 311 10 13 344 21 54
207 210 214 221 227 229 229 236 240 243 248 250 248 247 249 249 252 248 238 249 253 260 257 269 272 270 276 295 292 305 302 289 273 279 292 241 267 286 301 24 4 48 122
213 217 218 219 222 228 234 234 235 234 243 245 250 254 253 248 257 261 243 241 253 251 250 265 271 276 273 278 272 270 277 281 268 266 273 309 270 282 291 282 351 95 83
238 230 227 227 227 227 230 236 241 235 246 249 239 245 253 247 241 232 244 251 251 252 255 252 264 271 270 270 265 259 270 267 283 286 269 263 253 233 250 288 247 200 163
263 246 240 245 226 225 237 243 246 247 246 239 235 238 222 213 244 245 246 249 251 249 251 254 260 273 280 272 258 243 248 251 262 273 313 324 303 277 254 284 276 183 210
227 224 237 223 207 213 219 249 262 248 241 237 230 224 195 223 232 242 256 258 254 233 234 238 249 249 285 276 273 246 253 247 245 249 271 280 303 299 290 275 268 243 210
230 222 202 196 181 166 170 223 260 281 238 222 205 199 168 225 219 235 273 288 298 264 237 227 213 209 200 152 59 114 205 252 254 260 296 284 293 268 265 275 250 147 133
125 142 152 170 169 168 163 169 154 189 88 162 146 171 142 318 229 255 253 264 262 250 227 223 200 194 202 205 207 181 155 100 144 254 300 340 4 223 191 254 241 192 211
124 141 151 154 151 145 144 146 130 73 51 326 155 88 343 314 306 281 246 248 245 202 180 183 202 205 204 198 180 175 168 145 102 73 55 57 61 58 80 61 16 331 183
108 121 120 118 126 191 204 240 203 196 208 218 299 330 355 355 334 293 243 230 220 190 176 117 138 193 199 182 189 187 184 164 149 125 106 76 65 57 50 47 49 47 20
99 106 98 98 101 100 133 120 96 119 117 121 123 96 59 34 42 19 39 225 180 163 159 145 119 113 146 148 147 154 159 138 138 122 94 68 57 52 47 52 53 61 63
93 89 90 96 93 89 86 87 90 96 100 100 90 91 92 84 54 56 61 66 151 138 130 122 118 132 137 129 129 138 124 114 112 100 90 79 64 75 59 50 42 37 29
98 98 91 87 82 82 87 75 82 81 101 101 104 103 99 96 93 86 88 90 101 113 120 116 116 117 114 106 105 102 100 101 104 100 93 74 62 47 41 37 35 28 23
95 94 93 92 81 77 79 85 71 72 70 66 65 69 72 86 89 103 112 113 116 113 107 105 103 103 104 105 103 100 99 98 91 88 85 79 70 53 53 50 25 15 49
98 89 85 81 81 87 86 85 86 89 88 91 89 87 55 81 102 109 110 112 108 107 106 109 106 103 105 107 95 98 100 93 90 88 78 73 62 53 26 28 72 77 66
104 109 108 102 101 99 101 107 103 86 83 75 69 68 65 84 109 112 120 125 123 123 123 125 123 123 123 112 105 96 92 85 84 78 72 76 91 71 40 28 36 22 29
102 104 99 96 99 97 98 97 95 97 101 81 65 81 86 96 107 114 116 109 125 105 118 137 134 138 140 139 136 127 116 104 89 103 118 123 147 138 114 69 44 31 20
122 113 109 107 107 115 117 122 114 113 105 106 114 97 102 102 102 113 74 101 105 106 101 108 131 134 145 144 151 143 139 144 155 155 139 136 112 120 98 93 122 77 59
133 139 130 147 146 146 143 138 138 132 142 137 142 134 148 129 124 118 109 100 101 119 139 146 151 138 129 119 115 109 125 132 132 137 127 105 67 22 29 15 8 355 12
172 176 195 208 200 205 203 199 183 179 177 165 164 165 173 195 177 170 190 199 214 213 183 168 162 156 155 165 173 166 172 175 167 166 171 113 88 82 45 44 14 352 9
220 202 204 222 220 227 227 223 221 236 237 217 195 171 189 213 208 209 210 204 199 192 189 185 183 181 184 184 188 187 197 191 192 173 169 151 102 98 73 26 352 352 0
241 242 232 235 230 229 218 235 234 234 235 235 222 206 202 218 216 209 204 208 200 192 195 190 190 191 190 183 183 182 173 176 174 169 163 146 120 75 32 4 349 346 337
247 246 249 243 231 228 228 229 232 238 256 223 217 216 220 215 223 223 225 218 212 204 199 194 194 189 187 184 182 176 169 162 159 160 152 144 116 59 22 335 330 336 326
247 242 253 250 235 225 237 231 230 229 225 226 227 224 228 230 239 239 235 232 228 223 215 208 203 200 198 196 195 189 198 194 163 178 167 188 213 230 275 292 306 316 315
252 257 257 252 247 240 233 233 234 236 232 217 218 221 211 231 237 251 253 248 241 234 229 223 220 214 209 212 211 211 223 214 215 206 210 236 248 261 275 283 288 291 297
Height
836 839 842 845 847 849 850 852 854 856 857 856 858 859 860 861 863 864 865 865 865 865 866 866 866 866 865 862 863 862 862 862 860 853 859 860 860 860 859 858 857 854 854
832 835 838 842 844 845 847 849 852 853 854 855 856 857 858 859 860 861 862 861 862 863 864 864 865 863 864 864 862 863 861 862 861 858 859 859 860 859 859 859 857 854 857
827 831 834 838 840 842 844 846 848 850 851 852 854 854 855 856 857 857 859 860 860 860 861 862 863 863 864 863 863 862 858 859 859 858 856 856 857 858 857 857 858 858 856
823 827 829 833 836 839 841 843 844 846 847 848 850 851 852 853 854 855 855 856 857 858 859 859 860 861 861 862 861 861 861 860 857 858 854 854 856 857 857 856 856 856 857
824 825 825 827 832 836 838 840 842 843 844 844 846 847 848 850 850 852 853 853 853 855 855 856 857 858 858 859 859 859 859 859 856 854 854 853 852 852 857 855 854 857 859
821 825 825 827 830 834 836 838 840 841 841 842 843 844 845 846 846 848 848 850 850 851 852 853 854 854 856 856 856 856 857 858 858 857 856 851 855 856 853 855 853 857 858
823 822 820 823 827 830 832 837 837 838 839 840 842 843 843 843 843 844 845 845 845 846 848 849 851 853 852 854 852 854 854 855 855 856 856 855 855 855 856 856 856 856 855
818 819 822 824 825 827 830 833 836 836 836 837 841 842 842 841 841 842 843 844 843 843 843 844 846 849 850 852 853 853 854 854 854 855 855 854 854 854 855 855 854 855 857
818 820 822 825 827 828 830 832 833 834 835 838 839 839 840 843 840 840 841 843 842 841 842 842 844 846 847 847 849 851 853 854 853 854 854 852 851 851 852 854 854 856 856
821 822 824 825 828 829 830 831 831 832 836 839 839 840 840 839 838 839 840 842 841 841 840 840 843 845 846 845 848 849 853 854 855 856 857 856 854 853 853 853 855 850 854
823 824 826 829 829 831 832 834 833 833 835 838 840 839 839 839 838 837 836 839 838 840 843 844 841 842 845 844 845 847 850 852 854 857 858 858 858 858 857 857 856 857 858
826 827 828 830 832 832 834 834 837 838 837 840 840 842 842 843 841 839 834 837 834 837 841 843 841 843 843 844 845 848 852 855 854 856 858 860 861 861 861 861 859 859 860
829 830 831 833 834 836 836 837 839 839 840 841 843 842 844 846 844 840 838 839 837 837 841 843 845 844 846 846 847 850 853 855 856 857 860 862 863 864 864 864 864 862 863
834 834 835 835 838 837 839 839 841 842 843 842 843 845 845 845 845 844 843 843 844 839 844 846 848 848 849 851 853 854 856 858 857 859 862 864 867 868 866 866 866 865 865
836 837 837 839 840 841 841 841 844 844 844 845 846 847 845 844 845 844 844 844 845 847 847 850 853 852 853 855 856 858 862 861 860 862 863 864 866 869 868 867 867 867 865
838 839 839 841 842 843 843 845 846 846 847 848 847 848 847 845 844 845 846 848 845 846 852 853 855 858 860 861 864 862 862 865 864 863 864 865 867 869 871 870 869 867 868
841 842 844 845 846 845 846 848 848 849 849 849 848 848 847 847 847 848 851 851 851 850 853 857 856 858 860 863 864 866 866 866 867 865 865 867 869 872 871 872 871 870 870
843 843 843 844 845 846 847 849 848 849 849 851 851 850 850 849 850 852 853 854 855 854 854 857 859 859 861 863 864 864 866 868 868 867 868 868 869 870 870 869 871 871 870
842 843 844 845 847 848 849 849 850 851 850 853 853 852 853 853 853 855 855 856 854 857 858 860 861 861 863 865 865 865 866 868 870 872 872 872 870 869 871 869 870 870 867
843 843 844 845 847 848 848 848 849 850 851 852 851 853 857 857 856 856 857 857 857 858 861 862 864 864 865 867 868 867 870 871 871 874 874 873 874 874 873 873 874 873 870
843 844 845 845 845 846 846 847 847 848 849 850 852 853 854 855 856 857 857 859 860 861 862 863 864 864 865 868 870 869 871 872 872 873 876 876 874 876 877 873 875 877 875
840 841 843 843 843 845 845 845 846 846 847 848 849 852 854 856 855 857 857 858 859 861 862 864 865 866 868 868 869 870 872 872 874 873 875 876 877 876 875 876 877 876 873
838 838 839 840 841 843 844 844 844 844 845 846 846 848 851 852 852 854 855 857 859 860 862 863 864 866 867 867 869 870 869 872 874 875 877 876 876 876 875 875 876 875 875
836 837 837 837 838 839 840 840 841 843 843 843 844 846 848 849 850 852 855 857 859 859 860 862 862 864 865 867 868 869 870 872 874 875 875 876 875 874 875 876 876 875 875
832 833 834 834 834 836 836 838 837 839 840 842 842 843 845 846 848 849 851 854 856 857 858 858 859 861 863 865 866 868 870 872 874 873 874 874 875 875 875 874 875 874 873
830 830 831 831 831 832 833 835 838 839 839 840 842 844 846 847 848 849 849 850 850 851 853 854 856 858 860 862 865 867 868 870 872 873 874 874 874 874 873 872 872 872 871